TimeCDT,TemperatureF,Dew PointF,Humidity,Sea Level PressureIn,VisibilityMPH,Wind Direction,Wind SpeedMPH,Gust SpeedMPH,PrecipitationIn,Events,Conditions,WindDirDegrees,DateUTC
12:52 AM,62.1,52.0,70,30.10,10.0,Calm,Calm,-,N/A,,Clear,0,2013-07-12 05:52:00
1:52 AM,61.0,51.1,70,30.11,10.0,Calm,Calm,-,N/A,,Clear,0,2013-07-12 06:52:00
2:52 AM,60.1,51.1,72,30.12,10.0,WNW,3.5,-,N/A,,Clear,300,2013-07-12 07:52:00
3:52 AM,59.0,51.1,75,30.12,10.0,Calm,Calm,-,N/A,,Clear,0,2013-07-12 08:52:00
4:52 AM,57.0,51.1,81,30.13,10.0,Calm,Calm,-,N/A,,Clear,0,2013-07-12 09:52:00
5:52 AM,57.0,50.0,77,30.14,10.0,Calm,Calm,-,N/A,,Partly Cloudy,0,2013-07-12 10:52:00
6:52 AM,62.1,54.0,75,30.14,10.0,Calm,Calm,-,N/A,,Partly Cloudy,0,2013-07-12 11:52:00
7:52 AM,69.1,59.0,70,30.16,10.0,North,3.5,-,N/A,,Partly Cloudy,360,2013-07-12 12:52:00
8:52 AM,73.0,59.0,61,30.16,10.0,Calm,Calm,-,N/A,,Partly Cloudy,0,2013-07-12 13:52:00
9:52 AM,73.0,60.1,64,30.16,10.0,Calm,Calm,-,N/A,,Partly Cloudy,0,2013-07-12 14:52:00
10:52 AM,75.9,57.9,54,30.15,10.0,NE,4.6,-,N/A,,Partly Cloudy,50,2013-07-12 15:52:00
11:52 AM,75.9,57.0,52,30.15,10.0,ENE,4.6,-,N/A,,Partly Cloudy,60,2013-07-12 16:52:00
12:52 PM,77.0,59.0,54,30.15,10.0,ENE,6.9,-,N/A,,Partly Cloudy,60,2013-07-12 17:52:00
1:52 PM,77.0,60.1,56,30.13,10.0,East,8.1,-,N/A,,Partly Cloudy,100,2013-07-12 18:52:00
2:52 PM,78.1,60.1,54,30.13,10.0,East,8.1,-,N/A,,Partly Cloudy,90,2013-07-12 19:52:00
3:52 PM,77.0,59.0,54,30.13,10.0,ESE,8.1,-,N/A,,Partly Cloudy,120,2013-07-12 20:52:00
4:52 PM,77.0,60.1,56,30.12,10.0,SE,9.2,-,N/A,,Partly Cloudy,130,2013-07-12 21:52:00
5:52 PM,73.9,62.1,66,30.11,10.0,ESE,11.5,-,N/A,,Partly Cloudy,120,2013-07-12 22:52:00
6:52 PM,73.0,60.1,64,30.10,10.0,SE,6.9,-,N/A,,Scattered Clouds,130,2013-07-12 23:52:00
7:52 PM,70.0,60.1,71,30.10,10.0,SSE,5.8,-,N/A,,Mostly Cloudy,150,2013-07-13 00:52:00
8:52 PM,70.0,55.9,61,30.11,9.0,SE,3.5,-,N/A,,Scattered Clouds,140,2013-07-13 01:52:00
9:52 PM,66.0,57.0,73,30.12,10.0,Calm,Calm,-,N/A,,Clear,0,2013-07-13 02:52:00
10:52 PM,64.9,55.0,70,30.11,10.0,SSE,4.6,-,N/A,,Clear,160,2013-07-13 03:52:00
11:52 PM,64.9,57.0,75,30.11,10.0,SSE,4.6,-,N/A,,Clear,160,2013-07-13 04:52:00